STARLINK-37645, 69371

Orbit data source: Space-Track

STARLINK-37645, 69371 is a payload satellite owned by SpaceX/Seattle (US) in LEO that was launched on Thu, 04 Jun 2026 UTC via an FALCON 9 launch vehicle from the Air Force Eastern Test Range (AFETR). Payload-class satellites include a variety of spacecraft equipped with specific instruments for various scientific and technological missions. These include communications satellites like Starlink; space stations such as the ISS; scientific satellites like the Hubble; Earth observation satellites from companies like Planet Labs, Umbra, and HawkEye 360; GPS; miniature CubeSats for education and research; and military/defense satellites.

Loading next visibility...
Identifier
69371, 2026-123U
Orbit
LEO
Country
Flag of USUS
Related business
Manufacturer
SpaceX/Seattle
Mission
Operational spacecraft
Bus & Motor
STARLINK V2MO, Unknown motor
Mass
575 kg wet, ~530 kg dry
Launch date (UTC)
2026-06-04 (2 months ago)
Launch vehicle
FALCON 9
Launch site
Air Force Eastern Test Range (AFETR)
Object type
Payload
Rocket body
Debris
Shape & HBR
Unknown shape, 17.7 m
Radar Cross Section
Large (>1 m²)

Expand to show TLE details & history
Last TLE update: 16 hours ago

TLE from 16 hours ago
0 STARLINK-37645
1 69371U 26123U   26202.04567541  .00227188  00000-0  14437-2 0  9993
2 69371  53.1557  72.7073 0000825 101.6027 258.5086 15.75286477  7386
Epoch: 2026-07-21T01:05Z
TLE epoch observation values (Epoch: 2026-07-21T01:05:46.355Z)
Latitude
-0.00001°
Longitude
117.44315°
Altitude
344.843 km
Speed
7.703 km/s
True Right ascension
04h 50m 49s
True Declination
0° 00' 00"
Sunlit
Object was in daylight at epoch
Visualization orbit readout
Latitude
Unknown
Longitude
Unknown
Altitude
Unknown
Speed
Unknown
Apparent Right ascension
Unknown
Apparent Declination
Unknown
Sunlit
N/A
Visualization observer readout
Local Sidereal Time
05:57:58
Azimuth
Unknown
Elevation
Unknown
Doppler factor
Unknown
Orbital elements
Apogee altitude
344.633 km
Perigee altitude
343.524 km
Semi-major axis
6,722.215 km
Eccentricity
0.00008
Inclination
53.1557°
RAAN
72.7073°
Arg. of periapsis
101.6027°
True anomaly
258.49934°
Mean anomaly
258.5086°
Eccentric anomaly
258.50397°
Mean motion
3.93799 °/min
Orbital period
91.42 mins
BSTAR
0.0014437
Loading maneuver chart data...
Computing Atmospheric mass density...
Loading historical data...
Loading historical data...
Loading historical data...
Loading historical data...
Loading historical data...
Loading historical data...
Loading historical data...

Documentation

Showing up to 5 results
|